Weather History for St-Etienne Boutheon, France

Change the Weather History Date:

Monday, November 12, 2012

  Actual Average Record
Temperature  
Mean Temperature 42 °F -  
Max Temperature 46 °F 47 °F 64 °F (1996)
Min Temperature 39 °F 35 °F 26 °F (2001)
Degree Days  
Heating Degree Days 22    
Moisture  
Dew Point 38 °F    
Average Humidity 84    
Maximum Humidity 93    
Minimum Humidity 76    
Precipitation  
Precipitation 0.00 in - - ()
Sea Level Pressure  
Sea Level Pressure 30.29 in    
Wind  
Wind Speed 4 mph ()    
Max Wind Speed 8 mph    
Max Gust Speed -    
Visibility 5.6 miles    
Events      
Averages and records for this station are not official NWS values.
T = Trace of Precipitation, MM = Missing Value Source: Averaged Metar Reports

Daily Weather History Graph

Daily Weather History Graph

Search for Another Location

Airport:

Trip Planner

Search our weather history database for the weather conditions in past years. The results will help you decide how hot, cold, wet, or windy it might be!

Date:

Astronomy

Nov. 12, 2012 Rise Set
Actual Time 7:38 AM CET 5:15 PM CET
Civil Twilight 7:06 AM CET 5:47 PM CET
Nautical Twilight 6:30 AM CET 6:22 PM CET
Astronomical Twilight 5:55 AM CET 6:57 PM CET
Moon 5:41 AM CET (11/12) 4:11 PM CET (11/12)
Length of Visible Light 10h 40m
Length of Day
9h 37m
Waning Crescent, 3% of the Moon is Illuminated
Nov 12
Waning Crescent
Nov 13
New
Nov 20
First Quarter
Nov 28
Full
Dec 6
Last Quarter

Hourly Weather History & Observations

Time (CET) Temp. Windchill Dew Point Humidity Pressure Visibility Wind Dir Wind Speed Gust Speed Precip Events Conditions
12:00 AM 46.4 °F 45.2 °F 42.8 °F 87% 30.15 in 6.2 mi WNW 3.5 mph - N/A   Overcast
12:30 AM 46.4 °F 45.2 °F 42.8 °F 87% 30.18 in 6.2 mi NW 3.5 mph - N/A   Overcast
1:00 AM 46.4 °F 45.2 °F 42.8 °F 87% 30.18 in 6.2 mi WNW 3.5 mph - N/A   Overcast
1:30 AM 44.6 °F 42.2 °F 41.0 °F 87% 30.18 in 6.2 mi WNW 4.6 mph - N/A   Overcast
2:00 AM 44.6 °F - 41.0 °F 87% 30.18 in 6.2 mi WNW 2.3 mph - N/A   Overcast
2:30 AM 44.6 °F - 41.0 °F 87% 30.18 in 6.2 mi Calm Calm - N/A   Scattered Clouds
3:00 AM 42.8 °F - 39.2 °F 87% 30.18 in 3.7 mi Calm Calm - N/A   Overcast
3:30 AM 41.0 °F 39.0 °F 39.2 °F 93% 30.21 in 4.3 mi West 3.5 mph - N/A   Mostly Cloudy
4:00 AM 41.0 °F - 39.2 °F 93% 30.21 in 3.7 mi Calm Calm - N/A   Mostly Cloudy
4:30 AM 41.0 °F 38.0 °F 39.2 °F 93% 30.21 in 5.6 mi WNW 4.6 mph - N/A   Overcast
5:00 AM 41.0 °F - 39.2 °F 93% 30.21 in 5.0 mi WNW 2.3 mph - N/A   Overcast
5:30 AM 41.0 °F - 39.2 °F 93% 30.21 in 5.6 mi Variable 2.3 mph - N/A   Overcast
6:00 AM 41.0 °F 39.0 °F 39.2 °F 93% 30.21 in 5.0 mi WNW 3.5 mph - N/A   Overcast
6:30 AM 41.0 °F 39.0 °F 39.2 °F 93% 30.21 in 5.0 mi WNW 3.5 mph - N/A   Overcast
7:00 AM 41.0 °F - 39.2 °F 93% 30.24 in 5.0 mi Variable 2.3 mph - N/A   Overcast
7:30 AM 41.0 °F - 39.2 °F 93% 30.24 in 3.7 mi Variable 2.3 mph - N/A   Overcast
8:00 AM 41.0 °F - 39.2 °F 93% 30.27 in 3.7 mi Variable 2.3 mph - N/A   Overcast
8:30 AM 41.0 °F 39.0 °F 39.2 °F 93% 30.27 in 3.7 mi Variable 3.5 mph - N/A   Mostly Cloudy
9:00 AM 42.8 °F 41.1 °F 39.2 °F 87% 30.27 in 3.7 mi NNW 3.5 mph - N/A   Mostly Cloudy
9:30 AM 42.8 °F 39.3 °F 39.2 °F 87% 30.30 in 3.7 mi NNW 5.8 mph - N/A   Overcast
10:00 AM 42.8 °F 39.3 °F 39.2 °F 87% 30.30 in 3.7 mi North 5.8 mph - N/A   Overcast
10:30 AM 42.8 °F 40.1 °F 39.2 °F 87% 30.30 in 6.2 mi North 4.6 mph - N/A   Mostly Cloudy
11:00 AM 42.8 °F 38.6 °F 37.4 °F 81% 30.30 in 6.2 mi North 6.9 mph - N/A   Mostly Cloudy
11:30 AM 44.6 °F 42.2 °F 37.4 °F 76% 30.30 in 6.2 mi North 4.6 mph - N/A   Mostly Cloudy
12:00 PM 44.6 °F 42.2 °F 37.4 °F 76% 30.30 in 6.2 mi NW 4.6 mph - N/A   Mostly Cloudy
12:30 PM 44.6 °F 41.4 °F 37.4 °F 76% 30.30 in 6.2 mi NW 5.8 mph - N/A   Mostly Cloudy
1:00 PM 44.6 °F - 37.4 °F 76% 30.30 in 6.2 mi Variable 2.3 mph - N/A   Mostly Cloudy
1:30 PM 44.6 °F 41.4 °F 37.4 °F 76% 30.30 in 6.2 mi North 5.8 mph - N/A   Mostly Cloudy
2:00 PM 44.6 °F 41.4 °F 37.4 °F 76% 30.30 in 6.2 mi North 5.8 mph - N/A   Mostly Cloudy
2:30 PM 44.6 °F 40.7 °F 37.4 °F 76% 30.30 in 6.2 mi NNW 6.9 mph - N/A   Mostly Cloudy
3:00 PM 44.6 °F 40.7 °F 37.4 °F 76% 30.30 in 6.2 mi NNW 6.9 mph - N/A   Mostly Cloudy
3:30 PM 44.6 °F 40.7 °F 37.4 °F 76% 30.33 in 6.2 mi NW 6.9 mph - N/A   Mostly Cloudy
4:00 PM 42.8 °F 39.3 °F 37.4 °F 81% 30.33 in 6.2 mi NW 5.8 mph - N/A   Mostly Cloudy
4:30 PM 42.8 °F 38.6 °F 37.4 °F 81% 30.33 in 6.2 mi NW 6.9 mph - N/A   Mostly Cloudy
5:00 PM 42.8 °F 38.6 °F 37.4 °F 81% 30.33 in 6.2 mi NW 6.9 mph - N/A   Mostly Cloudy
5:30 PM 41.0 °F 37.1 °F 35.6 °F 81% 30.33 in 6.2 mi NNW 5.8 mph - N/A   Mostly Cloudy
6:00 PM 41.0 °F 38.0 °F 35.6 °F 81% 30.36 in 6.2 mi NW 4.6 mph - N/A   Mostly Cloudy
6:30 PM 41.0 °F 38.0 °F 35.6 °F 81% 30.36 in 6.2 mi North 4.6 mph - N/A   Overcast
7:00 PM 41.0 °F 36.4 °F 35.6 °F 81% 30.36 in 6.2 mi North 6.9 mph - N/A   Overcast
7:30 PM 41.0 °F 37.1 °F 35.6 °F 81% 30.36 in 6.2 mi North 5.8 mph - N/A   Overcast
8:00 PM 41.0 °F 36.4 °F 35.6 °F 81% 30.36 in 6.2 mi North 6.9 mph - N/A   Overcast
8:30 PM 41.0 °F 35.8 °F 35.6 °F 81% 30.39 in 6.2 mi North 8.1 mph - N/A   Overcast
9:00 PM 41.0 °F 37.1 °F 35.6 °F 81% 30.39 in 6.2 mi North 5.8 mph - N/A   Overcast
9:30 PM 39.2 °F 35.0 °F 33.8 °F 81% 30.39 in 6.2 mi NW 5.8 mph - N/A   Overcast
10:00 PM 39.2 °F 35.9 °F 33.8 °F 81% 30.39 in 6.2 mi NNW 4.6 mph - N/A   Overcast
10:30 PM 39.2 °F 35.0 °F 33.8 °F 81% 30.39 in 6.2 mi NNW 5.8 mph - N/A   Overcast
11:00 PM 39.2 °F 35.0 °F 33.8 °F 81% 30.39 in 6.2 mi NNW 5.8 mph - N/A   Overcast
11:30 PM 39.2 °F 35.0 °F 33.8 °F 81% 30.39 in 6.2 mi NNW 5.8 mph - N/A   Overcast